This demonstration page uses our WeatherBlox Daily Observations layout. Learn more.

Hourly Observations for May 9, 2015

Temp ( °F °C ) Dew Point ( °F °C ) Humidity (%) Winds ( mph kmh ) Pressure ( in mb ) Visibility ( mi km ) Precip ( " mm )
12:15 am 00:15 Partly Cloudy 53 11.6 49 9.2 85 85 E 12 19 30.03 1017 10 16.0934 0 0
12:35 am 00:35 Mostly Cloudy 53 11.8 49 9.7 87 87 E 15 24 30.03 1017 10 16.0934 0 0
12:55 am 00:55 Cloudy 54 12 50 9.9 87 87 E 13 20 30.03 1017 10 16.0934 0 0
1:15 am 01:15 Cloudy 54 12.2 49 9.7 85 85 ESE 12 19 30.06 1018 10 16.0934 0 0
1:35 am 01:35 Cloudy 54 12.2 49 9.6 84 84 E 12 19 30.06 1018 10 16.0934 0 0
1:55 am 01:55 Cloudy 54 12.1 49 9.6 85 85 E 12 19 30.06 1018 10 16.0934 0 0
2:15 am 02:15 Cloudy 54 12 49 9.4 84 84 E 10 17 30.03 1017 10 16.0934 0 0
2:35 am 02:35 Cloudy 53 11.7 48 9.1 84 84 E 9 15 30.03 1017 10 16.0934 0 0
2:55 am 02:55 Cloudy 53 11.6 48 9.1 85 85 E 13 20 30.06 1018 10 16.0934 0 0
3:15 am 03:15 Cloudy 52 11.3 48 8.8 85 85 E 15 24 30.06 1018 10 16.0934 0 0
3:35 am 03:35 Cloudy 52 11.1 48 9 87 87 E 12 19 30.06 1018 10 16.0934 0 0
3:55 am 03:55 Cloudy 52 11 48 9.1 88 88 E 13 20 30.03 1017 7 11.26538 0 0
4:15 am 04:15 Cloudy with Mist and Fog 52 11.1 49 9.2 88 88 E 13 20 30.03 1017 5 8.0467 0 0
4:35 am 04:35 Cloudy 52 11.1 49 9.2 88 88 E 12 19 30.03 1017 7 11.26538 0 0
4:55 am 04:55 Cloudy with Mist and Fog 52 11 49 9.4 90 90 E 10 17 30.03 1017 5 8.0467 0 0
5:15 am 05:15 Cloudy with Mist and Fog 51 10.8 49 9.5 92 92 ENE 14 22 30.03 1017 4 6.43736 0 0
5:35 am 05:35 Cloudy with Light Rain 51 10.7 49 9.5 92 92 E 17 28 30.03 1017 3 4.82802 0 0
5:55 am 05:55 Cloudy with Light Rain 51 10.5 49 9.5 94 94 E 16 26 30.03 1017 3 4.82802 0.01 0.254
6:15 am 06:15 Cloudy with Mist and Fog 51 10.5 49 9.5 94 94 E 16 26 30 1016 3 4.82802 0 0
6:35 am 06:35 Cloudy with Mist and Fog 51 10.3 49 9.5 95 95 E 18 30 30 1016 3 4.82802 0 0
6:55 am 06:55 Cloudy with Mist and Fog 51 10.3 49 9.4 94 94 E 18 30 30 1016 3 4.82802 0 0
7:15 am 07:15 Cloudy with Mist and Fog 50 10.2 49 9.3 94 94 E 18 30 30 1016 3 4.82802 0 0
7:35 am 07:35 Cloudy with Mist and Fog 50 10.2 49 9.3 94 94 E 17 28 30 1016 1.5 2.41401 0 0
7:55 am 07:55 Cloudy with Mist and Fog 50 10.1 49 9.3 95 95 E 16 26 30 1016 1.5 2.41401 0 0
8:15 am 08:15 Cloudy with Mist and Fog 50 10 48 9.1 94 94 E 20 31 30 1016 1.5 2.41401 0 0
8:35 am 08:35 Cloudy with Mist and Fog 50 10 48 9 94 94 E 17 28 30 1016 1.75 2.816345 0 0
8:55 am 08:55 Cloudy with Mist and Fog 50 10 48 9.1 94 94 E 17 28 29.97 1015 2.5 4.02335 0 0
9:15 am 09:15 Cloudy with Mist and Fog 50 10 48 9 94 94 ENE 17 28 30 1016 2.5 4.02335 0 0
9:35 am 09:35 Cloudy with Mist and Fog 50 10 48 9 94 94 ENE 17 28 30 1016 3 4.82802 0 0
9:55 am 09:55 Cloudy with Light Rain 50 10.1 48 9 93 93 ENE 18 30 30 1016 3 4.82802 0 0
10:15 am 10:15 Cloudy with Light Rain 50 10.1 48 9.1 94 94 E 10 17 30.03 1017 2.5 4.02335 0 0
10:35 am 10:35 Cloudy with Mist and Fog 50 10.2 48 9.1 93 93 E 14 22 30.03 1017 3 4.82802 0.01 0.254
10:55 am 10:55 Cloudy with Light Rain 51 10.5 49 9.2 92 92 ENE 15 24 30.03 1017 3 4.82802 0.01 0.254
11:15 am 11:15 Cloudy with Light Rain 51 10.3 49 9.2 93 93 ENE 15 24 30.03 1017 1.25 2.011675 0.01 0.254
11:35 am 11:35 Cloudy with Light Rain 51 10.4 49 9.4 94 94 ENE 15 24 30 1016 1.25 2.011675 0.03 0.762
11:55 am 11:55 Cloudy with Light Rain 51 10.5 49 9.5 94 94 E 15 24 30 1016 1.25 2.011675 0.05 1.27
12:15 pm 12:15 Cloudy with Light Rain 51 10.5 49 9.6 94 94 E 15 24 30 1016 1.5 2.41401 0.01 0.254
12:35 pm 12:35 Cloudy with Mist and Fog 51 10.8 50 10 95 95 E 14 22 30 1016 1.25 2.011675 0.01 0.254
12:55 pm 12:55 Cloudy with Mist and Fog 51 10.8 50 10 95 95 ENE 16 26 29.97 1015 1.5 2.41401 0.01 0.254
1:15 pm 13:15 Cloudy with Mist and Fog 51 10.8 50 10 95 95 ENE 16 26 29.97 1015 2 3.21868 0 0
1:35 pm 13:35 Cloudy with Mist and Fog 51 10.6 49 9.7 94 94 ENE 18 30 29.94 1014 2 3.21868 0 0
1:55 pm 13:55 Cloudy with Mist and Fog 51 10.5 49 9.6 94 94 ENE 21 33 29.94 1014 2 3.21868 0 0
2:15 pm 14:15 Cloudy with Mist and Fog 51 10.6 49 9.7 94 94 ENE 18 30 29.94 1014 1.5 2.41401 0 0
2:35 pm 14:35 Cloudy with Mist and Fog 51 10.7 50 9.9 95 95 E 21 33 29.91 1013 1.25 2.011675 0 0
2:55 pm 14:55 Cloudy with Mist and Fog 51 10.6 50 9.8 95 95 ENE 18 30 29.91 1013 1 1.60934 0 0
3:15 pm 15:15 Cloudy with Mist and Fog 51 10.7 50 10 95 95 ENE 22 35 29.91 1013 1 1.60934 0 0
3:35 pm 15:35 Cloudy with Mist and Fog 51 10.8 50 10.1 95 95 E 18 30 29.88 1012 0.75 1.207005 0 0
3:55 pm 15:55 Cloudy with Fog 51 10.8 50 10.1 95 95 E 21 33 29.88 1012 0.5 0.80467 0 0
4:15 pm 16:15 Cloudy with Fog 52 11.1 51 10.5 96 96 ENE 22 35 29.85 1011 0.5 0.80467 0 0
4:35 pm 16:35 Cloudy with Mist and Fog 53 11.5 52 10.9 96 96 ENE 23 37 29.8 1009 0.75 1.207005 0 0
4:55 pm 16:55 Cloudy with Mist and Fog 54 12 53 11.5 97 97 ENE 24 39 29.8 1009 1.5 2.41401 0 0
5:15 pm 17:15 Cloudy with Mist and Fog 54 12.2 53 11.6 96 96 E 24 39 29.83 1010 0.75 1.207005 0 0
5:35 pm 17:35 Cloudy with Mist and Fog 54 12.4 53 11.7 96 96 E 20 31 29.8 1009 0.75 1.207005 0 0
5:55 pm 17:55 Cloudy with Mist and Fog 55 12.6 54 12 96 96 E 21 33 29.8 1009 0.75 1.207005 0 0
6:15 pm 18:15 Cloudy with Mist and Fog 55 12.7 54 12.1 96 96 E 20 31 29.8 1009 0.75 1.207005 0 0
6:35 pm 18:35 Cloudy with Mist and Fog 55 13 54 12.3 96 96 E 20 31 29.8 1009 1 1.60934 0 0
6:55 pm 18:55 Cloudy with Mist and Fog 56 13.1 55 12.5 96 96 ENE 22 35 29.8 1009 1.5 2.41401 0 0
7:15 pm 19:15 Cloudy with Mist and Fog 56 13.5 55 12.8 96 96 ENE 21 33 29.74 1007 2 3.21868 0 0
7:35 pm 19:35 Cloudy with Nearby Thunderstorms 57 13.7 55 13 96 96 E 22 35 29.74 1007 2.5 4.02335 0 0
7:55 pm 19:55 Cloudy with Mist and Fog 57 14 55 13 94 94 E 18 30 29.74 1007 3 4.82802 0 0
8:15 pm 20:15 Cloudy with Mist and Fog 57 14 55 13 94 94 E 18 30 29.74 1007 5 8.0467 0 0
8:35 pm 20:35 Cloudy with Mist and Fog 58 14.5 56 13.3 93 93 E 18 30 29.74 1007 5 8.0467 0 0
8:55 pm 20:55 Cloudy with Light Rain 58 14.6 56 13.5 93 93 E 18 30 29.74 1007 5 8.0467 0.01 0.254
9:15 pm 21:15 Cloudy with Thunderstorms 58 14.7 57 13.7 94 94 E 29 46 29.74 1007 5 8.0467 0.06 1.524
9:35 pm 21:35 Cloudy with Nearby Thunderstorms 59 15.2 58 14.3 94 94 ESE 20 31 29.74 1007 5 8.0467 0.06 1.524
9:55 pm 21:55 Cloudy 60 15.8 58 14.7 93 93 ESE 20 31 29.74 1007 7 11.26538 0.06 1.524
10:15 pm 22:15 Cloudy 61 16.2 59 14.8 91 91 ESE 18 30 29.74 1007 10 16.0934 0 0
10:35 pm 22:35 Cloudy 61 16.2 59 14.8 91 91 ESE 22 35 29.74 1007 10 16.0934 0 0
10:55 pm 22:55 Cloudy 61 16.1 59 14.8 92 92 SE 17 28 29.74 1007 10 16.0934 0 0
11:15 pm 23:15 Cloudy with Light Rain 60 15.8 58 14.6 93 93 SE 15 24 29.74 1007 7 11.26538 0 0
11:35 pm 23:35 Mostly Cloudy 60 15.6 57 14.1 91 91 SE 13 20 29.71 1006 10 16.0934 0 0
11:55 pm 23:55 Cloudy 60 15.8 58 14.5 92 92 SE 15 24 29.74 1007 10 16.0934 0 0

Powered by AerisWeather